Notices

What's New in latest Release from April 7th, 2021:

- Updated Glossary, including Speed of Maximum Gust, and Total Hourly Precipitation

- Updated national and regional climate services offices contacts and prices information

- Addition of station inventory lists for 1981-2010, 1971-2000, and 1961-1990 Normals.

If you haven't already, please take our survey and provide feedback about our website: https://eccc.sondage-survey.ca/f/LanguageSelection.aspx?s=442ca660-fcf1-47c0-95a9-59707d6fd709

Hourly Data Report for November 26, 2019

SAINT JOHN A
NEW BRUNSWICK
Current Station Operator: NAVCAN

45°18'58.000" N
65°53'24.000" W
108.80 m
8104901
71609
YSJ

Download Data

Hourly Data (November 2019)
Hourly Data Report for November 26, 2019
TIME
LST
Temp Definition
°C
Dew Point Definition
°C
Rel Hum Definition
%
Precip. Amount Definition
mm

Wind Dir Definition
10's deg

Wind Spd Definition
km/h
Visibility Definition
km
Stn Press Definition
kPa
Hmdx Definition


Wind Chill Definition


Weather Definition


00:00 0.3 -0.9 91   24 12 24.1 99.63     LegendNANA
01:00 0.8 -0.6 90   25 9 24.1 99.68     LegendNANA
02:00 0.9 -0.7 89   25 8 24.1 99.72     Mainly Clear
03:00 1.2 -0.6 88   25 8 24.1 99.82     LegendNANA
04:00 0.9 -0.9 88   25 9 24.1 99.84     LegendNANA
05:00 0.6 -1.1 89   25 12 24.1 99.88     Mainly Clear
06:00 0.4 -1.4 87   26 9 24.1 99.93     LegendNANA
07:00 0.3 -1.8 86   26 6 24.1 99.99     LegendNANA
08:00 0.9 -1.7 83   26 9 24.1 100.04     Mainly Clear
09:00 2.8 -1.3 75   28 8 24.1 100.08     LegendNANA
10:00 4.7 -1.1 66   27 8 24.1 100.08     LegendNANA
11:00 6.4 -0.4 62   24 14 24.1 100.10     Mainly Clear
12:00 8.3 -1.0 52   26 16 24.1 100.06     LegendNANA
13:00 8.8 1.5 60   22 24 24.1 100.04     LegendNANA
14:00 8.6 3.0 68   23 27 24.1 99.98     Mainly Clear
15:00 8.7 3.8 71   22 23 24.1 99.94     LegendNANA
16:00 8.3 3.9 74   21 15 24.1 99.92     LegendNANA
17:00 7.6 5.3 85   22 16 24.1 99.91     Mostly Cloudy
18:00 7.1 5.5 89   22 14 24.1 99.87     LegendNANA
19:00 8.0 6.2 88   22 20 24.1 99.82     LegendNANA
20:00 7.9 6.6 91   23 21 24.1 99.84     Cloudy
21:00 7.9 6.1 89   24 20 12.9 99.83     LegendNANA
22:00 7.0 5.1 88   25 16 8.1 99.86     Fog
23:00 5.8 3.9 88   28 9 24.1 99.91     Mostly Cloudy

Notes on Data Quality.

Legend

  • E = Estimated
  • M = Missing
  • NA = Not Available*
  • [empty] = Indicates an unobserved value
Date modified: